Time,TemperatureF,DewpointF,PressureIn,WindDirection,WindDirectionDegrees,WindSpeedMPH,WindSpeedGustMPH,Humidity,HourlyPrecipIn,Conditions,Clouds,dailyrainin,SolarRadiationWatts/m^2,SoftwareType,DateUTC
2013-08-03 00:32:00,45.0,41.0,-100.00,WNW,302,0.0,2.0,85,0.00,,,0.00,0.000000,,2013-08-03 06:32:00,
2013-08-03 00:42:00,45.0,41.0,-100.00,WNW,302,0.0,2.0,85,0.00,,,0.00,0.000000,,2013-08-03 06:42:00,
2013-08-03 00:52:00,42.0,39.0,-100.00,WNW,291,0.0,2.0,90,0.00,,,0.00,0.000000,,2013-08-03 06:52:00,
2013-08-03 01:32:00,42.0,39.0,-100.00,WNW,291,0.0,2.0,90,0.00,,,0.00,0.000000,,2013-08-03 07:32:00,
2013-08-03 01:43:00,42.0,39.0,-100.00,WNW,291,0.0,2.0,90,0.00,,,0.00,0.000000,,2013-08-03 07:43:00,
2013-08-03 01:52:00,41.0,39.0,-100.00,WNW,299,0.0,3.0,91,-99.99,,,0.00,0.000000,,2013-08-03 07:52:00,
2013-08-03 02:32:00,41.0,39.0,-100.00,WNW,299,0.0,3.0,91,-99.99,,,0.00,0.000000,,2013-08-03 08:32:00,
2013-08-03 02:43:00,41.0,39.0,-100.00,WNW,299,0.0,3.0,91,-99.99,,,0.00,0.000000,,2013-08-03 08:43:00,
2013-08-03 02:52:00,40.0,38.0,-100.00,West,274,0.0,2.0,92,0.00,,,0.00,0.000000,,2013-08-03 08:52:00,
2013-08-03 03:32:00,40.0,38.0,-100.00,West,274,0.0,2.0,92,0.00,,,0.00,0.000000,,2013-08-03 09:32:00,
2013-08-03 03:43:00,40.0,38.0,-100.00,West,274,0.0,2.0,92,0.00,,,0.00,0.000000,,2013-08-03 09:43:00,
2013-08-03 03:52:00,40.0,38.0,-100.00,WSW,239,3.0,5.0,92,0.00,,,0.00,0.000000,,2013-08-03 09:52:00,
2013-08-03 04:32:00,40.0,38.0,-100.00,WSW,239,3.0,5.0,92,0.00,,,0.00,0.000000,,2013-08-03 10:32:00,
2013-08-03 04:42:00,40.0,38.0,-100.00,WSW,239,3.0,5.0,92,0.00,,,0.00,0.000000,,2013-08-03 10:42:00,
2013-08-03 04:52:00,44.0,39.0,-100.00,WSW,243,2.0,8.0,82,0.00,,,0.00,0.000000,,2013-08-03 10:52:00,
2013-08-03 05:12:00,44.0,39.0,-100.00,WSW,243,2.0,8.0,82,0.00,,,0.00,0.000000,,2013-08-03 11:12:00,
2013-08-03 05:22:00,44.0,39.0,-100.00,WSW,243,2.0,8.0,82,0.00,,,0.00,0.000000,,2013-08-03 11:22:00,
2013-08-03 05:32:00,44.0,39.0,-100.00,WSW,243,2.0,8.0,82,0.00,,,0.00,0.000000,,2013-08-03 11:32:00,
2013-08-03 05:43:00,44.0,39.0,-100.00,WSW,243,2.0,8.0,82,0.00,,,0.00,0.000000,,2013-08-03 11:43:00,
2013-08-03 05:52:00,47.0,38.0,-100.00,West,261,4.0,9.0,72,0.00,,,0.00,0.000000,,2013-08-03 11:52:00,
2013-08-03 06:12:00,47.0,38.0,-100.00,West,261,4.0,9.0,72,0.00,,,0.00,0.000000,,2013-08-03 12:12:00,
2013-08-03 06:22:00,47.0,38.0,-100.00,West,261,4.0,9.0,72,0.00,,,0.00,0.000000,,2013-08-03 12:22:00,
2013-08-03 06:33:00,47.0,38.0,-100.00,West,261,4.0,9.0,72,0.00,,,0.00,0.000000,,2013-08-03 12:33:00,
2013-08-03 06:43:00,47.0,38.0,-100.00,West,261,4.0,9.0,72,0.00,,,0.00,0.000000,,2013-08-03 12:43:00,
2013-08-03 06:52:00,56.0,39.0,-100.00,SSW,210,6.0,10.0,53,0.00,,,0.00,42.000000,,2013-08-03 12:52:00,
2013-08-03 07:12:00,56.0,39.0,-100.00,SSW,210,6.0,10.0,53,0.00,,,0.00,42.000000,,2013-08-03 13:12:00,
2013-08-03 07:22:00,56.0,39.0,-100.00,SSW,210,6.0,10.0,53,0.00,,,0.00,42.000000,,2013-08-03 13:22:00,
2013-08-03 07:33:00,56.0,39.0,-100.00,SSW,210,6.0,10.0,53,0.00,,,0.00,42.000000,,2013-08-03 13:33:00,
2013-08-03 07:43:00,56.0,39.0,-100.00,SSW,210,6.0,10.0,53,0.00,,,0.00,42.000000,,2013-08-03 13:43:00,
2013-08-03 07:52:00,59.0,41.0,-100.00,SW,226,6.0,11.0,51,0.00,,,0.00,180.000000,,2013-08-03 13:52:00,
2013-08-03 08:12:00,59.0,41.0,-100.00,SW,226,6.0,11.0,51,0.00,,,0.00,180.000000,,2013-08-03 14:12:00,
2013-08-03 08:22:00,59.0,41.0,-100.00,SW,226,6.0,11.0,51,0.00,,,0.00,180.000000,,2013-08-03 14:22:00,
2013-08-03 08:32:00,59.0,41.0,-100.00,SW,226,6.0,11.0,51,0.00,,,0.00,180.000000,,2013-08-03 14:32:00,
2013-08-03 08:42:00,59.0,41.0,-100.00,SW,226,6.0,11.0,51,0.00,,,0.00,180.000000,,2013-08-03 14:42:00,
2013-08-03 08:52:00,63.0,42.0,-100.00,WSW,241,8.0,12.0,46,0.00,,,0.00,401.000000,,2013-08-03 14:52:00,
2013-08-03 09:12:00,63.0,42.0,-100.00,WSW,241,8.0,12.0,46,0.00,,,0.00,401.000000,,2013-08-03 15:12:00,
2013-08-03 09:23:00,63.0,42.0,-100.00,WSW,241,8.0,12.0,46,0.00,,,0.00,401.000000,,2013-08-03 15:23:00,
2013-08-03 09:32:00,63.0,42.0,-100.00,WSW,241,8.0,12.0,46,0.00,,,0.00,401.000000,,2013-08-03 15:32:00,
2013-08-03 09:43:00,63.0,42.0,-100.00,WSW,241,8.0,12.0,46,0.00,,,0.00,401.000000,,2013-08-03 15:43:00,
2013-08-03 09:52:00,64.0,39.0,-100.00,WSW,251,8.0,15.0,40,0.00,,,0.00,651.000000,,2013-08-03 15:52:00,
2013-08-03 10:12:00,64.0,39.0,-100.00,WSW,251,8.0,15.0,40,0.00,,,0.00,651.000000,,2013-08-03 16:12:00,
2013-08-03 10:23:00,64.0,39.0,-100.00,WSW,251,8.0,15.0,40,0.00,,,0.00,651.000000,,2013-08-03 16:23:00,
2013-08-03 10:33:00,64.0,39.0,-100.00,WSW,251,8.0,15.0,40,0.00,,,0.00,651.000000,,2013-08-03 16:33:00,
2013-08-03 10:43:00,64.0,39.0,-100.00,WSW,251,8.0,15.0,40,0.00,,,0.00,651.000000,,2013-08-03 16:43:00,
2013-08-03 10:52:00,68.0,39.0,-100.00,WSW,243,9.0,14.0,35,0.00,,,0.00,718.000000,,2013-08-03 16:52:00,
2013-08-03 11:12:00,68.0,39.0,-100.00,WSW,243,9.0,14.0,35,0.00,,,0.00,718.000000,,2013-08-03 17:12:00,
2013-08-03 11:22:00,68.0,39.0,-100.00,WSW,243,9.0,14.0,35,0.00,,,0.00,718.000000,,2013-08-03 17:22:00,
2013-08-03 11:32:00,68.0,39.0,-100.00,WSW,243,9.0,14.0,35,0.00,,,0.00,718.000000,,2013-08-03 17:32:00,
2013-08-03 11:43:00,68.0,39.0,-100.00,WSW,243,9.0,14.0,35,0.00,,,0.00,718.000000,,2013-08-03 17:43:00,
2013-08-03 11:52:00,67.0,38.0,-100.00,SSW,211,5.0,13.0,34,0.00,,,0.00,626.000000,,2013-08-03 17:52:00,
2013-08-03 12:12:00,67.0,38.0,-100.00,SSW,211,5.0,13.0,34,0.00,,,0.00,626.000000,,2013-08-03 18:12:00,
2013-08-03 12:22:00,67.0,38.0,-100.00,SSW,211,5.0,13.0,34,0.00,,,0.00,626.000000,,2013-08-03 18:22:00,
2013-08-03 12:32:00,67.0,38.0,-100.00,SSW,211,5.0,13.0,34,0.00,,,0.00,626.000000,,2013-08-03 18:32:00,
2013-08-03 12:43:00,67.0,38.0,-100.00,SSW,211,5.0,13.0,34,0.00,,,0.00,626.000000,,2013-08-03 18:43:00,
2013-08-03 12:52:00,71.0,39.0,-100.00,SW,220,7.0,12.0,31,0.00,,,0.00,849.000000,,2013-08-03 18:52:00,
2013-08-03 13:12:00,71.0,39.0,-100.00,SW,220,7.0,12.0,31,0.00,,,0.00,849.000000,,2013-08-03 19:12:00,
2013-08-03 13:22:00,71.0,39.0,-100.00,SW,220,7.0,12.0,31,0.00,,,0.00,849.000000,,2013-08-03 19:22:00,
2013-08-03 13:32:00,71.0,39.0,-100.00,SW,220,7.0,12.0,31,0.00,,,0.00,849.000000,,2013-08-03 19:32:00,
2013-08-03 13:43:00,71.0,39.0,-100.00,SW,220,7.0,12.0,31,0.00,,,0.00,849.000000,,2013-08-03 19:43:00,
2013-08-03 13:52:00,71.0,39.0,-100.00,West,263,6.0,12.0,31,0.00,,,0.00,620.000000,,2013-08-03 19:52:00,
2013-08-03 14:12:00,71.0,39.0,-100.00,West,263,6.0,12.0,31,0.00,,,0.00,620.000000,,2013-08-03 20:12:00,
2013-08-03 14:22:00,71.0,39.0,-100.00,West,263,6.0,12.0,31,0.00,,,0.00,620.000000,,2013-08-03 20:22:00,
2013-08-03 14:32:00,71.0,39.0,-100.00,West,263,6.0,12.0,31,0.00,,,0.00,620.000000,,2013-08-03 20:32:00,
2013-08-03 14:42:00,71.0,39.0,-100.00,West,263,6.0,12.0,31,0.00,,,0.00,620.000000,,2013-08-03 20:42:00,
2013-08-03 14:52:00,73.0,35.0,-100.00,SW,219,7.0,14.0,25,0.00,,,0.00,737.000000,,2013-08-03 20:52:00,
2013-08-03 15:12:00,73.0,35.0,-100.00,SW,219,7.0,14.0,25,0.00,,,0.00,737.000000,,2013-08-03 21:12:00,
2013-08-03 15:22:00,73.0,35.0,-100.00,SW,219,7.0,14.0,25,0.00,,,0.00,737.000000,,2013-08-03 21:22:00,
2013-08-03 15:32:00,73.0,35.0,-100.00,SW,219,7.0,14.0,25,0.00,,,0.00,737.000000,,2013-08-03 21:32:00,
2013-08-03 15:42:00,73.0,35.0,-100.00,SW,219,7.0,14.0,25,0.00,,,0.00,737.000000,,2013-08-03 21:42:00,
2013-08-03 15:52:00,70.0,37.0,-100.00,West,260,7.0,16.0,30,0.00,,,0.00,477.000000,,2013-08-03 21:52:00,
2013-08-03 16:12:00,70.0,37.0,-100.00,West,260,7.0,16.0,30,0.00,,,0.00,477.000000,,2013-08-03 22:12:00,
2013-08-03 16:22:00,70.0,37.0,-100.00,West,260,7.0,16.0,30,0.00,,,0.00,477.000000,,2013-08-03 22:22:00,
2013-08-03 16:33:00,70.0,37.0,-100.00,West,260,7.0,16.0,30,0.00,,,0.00,477.000000,,2013-08-03 22:33:00,
2013-08-03 16:43:00,70.0,37.0,-100.00,West,260,7.0,16.0,30,0.00,,,0.00,477.000000,,2013-08-03 22:43:00,
2013-08-03 16:52:00,60.0,39.0,-100.00,SSW,203,11.0,29.0,45,0.00,,,0.00,99.000000,,2013-08-03 22:52:00,
2013-08-03 17:12:00,60.0,39.0,-100.00,SSW,203,11.0,29.0,45,0.00,,,0.00,99.000000,,2013-08-03 23:12:00,
2013-08-03 17:22:00,60.0,39.0,-100.00,SSW,203,11.0,29.0,45,0.00,,,0.00,99.000000,,2013-08-03 23:22:00,
2013-08-03 17:32:00,60.0,39.0,-100.00,SSW,203,11.0,29.0,45,0.00,,,0.00,99.000000,,2013-08-03 23:32:00,
2013-08-03 17:42:00,60.0,39.0,-100.00,SSW,203,11.0,29.0,45,0.00,,,0.00,99.000000,,2013-08-03 23:42:00,
2013-08-03 17:52:00,61.0,41.0,-100.00,West,259,6.0,17.0,48,0.00,,,0.00,110.000000,,2013-08-03 23:52:00,
2013-08-03 18:12:00,61.0,41.0,-100.00,West,259,6.0,17.0,48,0.00,,,0.00,110.000000,,2013-08-04 00:12:00,
2013-08-03 18:22:00,61.0,41.0,-100.00,West,259,6.0,17.0,48,0.00,,,0.00,110.000000,,2013-08-04 00:22:00,
2013-08-03 18:32:00,61.0,41.0,-100.00,West,259,6.0,17.0,48,0.00,,,0.00,110.000000,,2013-08-04 00:32:00,
2013-08-03 18:42:00,61.0,41.0,-100.00,West,259,6.0,17.0,48,0.00,,,0.00,110.000000,,2013-08-04 00:42:00,
2013-08-03 18:52:00,61.0,40.0,-100.00,SW,232,7.0,13.0,46,0.00,,,0.00,147.000000,,2013-08-04 00:52:00,
2013-08-03 19:12:00,61.0,40.0,-100.00,SW,232,7.0,13.0,46,0.00,,,0.00,147.000000,,2013-08-04 01:12:00,
2013-08-03 19:22:00,61.0,40.0,-100.00,SW,232,7.0,13.0,46,0.00,,,0.00,147.000000,,2013-08-04 01:22:00,
2013-08-03 19:32:00,61.0,40.0,-100.00,SW,232,7.0,13.0,46,0.00,,,0.00,147.000000,,2013-08-04 01:32:00,
2013-08-03 19:42:00,61.0,40.0,-100.00,SW,232,7.0,13.0,46,0.00,,,0.00,147.000000,,2013-08-04 01:42:00,
2013-08-03 19:52:00,62.0,41.0,-100.00,WSW,239,6.0,12.0,46,0.00,,,0.00,83.000000,,2013-08-04 01:52:00,
2013-08-03 20:12:00,62.0,41.0,-100.00,WSW,239,6.0,12.0,46,0.00,,,0.00,83.000000,,2013-08-04 02:12:00,
2013-08-03 20:22:00,62.0,41.0,-100.00,WSW,239,6.0,12.0,46,0.00,,,0.00,83.000000,,2013-08-04 02:22:00,
2013-08-03 20:32:00,62.0,41.0,-100.00,WSW,239,6.0,12.0,46,0.00,,,0.00,83.000000,,2013-08-04 02:32:00,
2013-08-03 20:42:00,62.0,41.0,-100.00,WSW,239,6.0,12.0,46,0.00,,,0.00,83.000000,,2013-08-04 02:42:00,
2013-08-03 20:52:00,59.0,39.0,-100.00,SW,225,6.0,12.0,47,0.00,,,0.00,25.000000,,2013-08-04 02:52:00,
2013-08-03 21:12:00,59.0,39.0,-100.00,SW,225,6.0,12.0,47,0.00,,,0.00,25.000000,,2013-08-04 03:12:00,
2013-08-03 21:22:00,59.0,39.0,-100.00,SW,225,6.0,12.0,47,0.00,,,0.00,25.000000,,2013-08-04 03:22:00,
2013-08-03 21:32:00,59.0,39.0,-100.00,SW,225,6.0,12.0,47,0.00,,,0.00,25.000000,,2013-08-04 03:32:00,
2013-08-03 21:42:00,59.0,39.0,-100.00,SW,225,6.0,12.0,47,0.00,,,0.00,25.000000,,2013-08-04 03:42:00,
2013-08-03 21:52:00,53.0,39.0,-100.00,South,176,3.0,9.0,58,0.00,,,0.00,0.000000,,2013-08-04 03:52:00,
2013-08-03 22:12:00,53.0,39.0,-100.00,South,176,3.0,9.0,58,0.00,,,0.00,0.000000,,2013-08-04 04:12:00,
2013-08-03 22:22:00,53.0,39.0,-100.00,South,176,3.0,9.0,58,0.00,,,0.00,0.000000,,2013-08-04 04:22:00,
2013-08-03 22:32:00,53.0,39.0,-100.00,South,176,3.0,9.0,58,0.00,,,0.00,0.000000,,2013-08-04 04:32:00,
2013-08-03 22:42:00,53.0,39.0,-100.00,South,176,3.0,9.0,58,0.00,,,0.00,0.000000,,2013-08-04 04:42:00,
2013-08-03 22:52:00,44.0,39.0,-100.00,WSW,241,0.0,4.0,81,0.00,,,0.00,0.000000,,2013-08-04 04:52:00,
2013-08-03 23:32:00,44.0,39.0,-100.00,WSW,241,0.0,4.0,81,0.00,,,0.00,0.000000,,2013-08-04 05:32:00,
2013-08-03 23:42:00,44.0,39.0,-100.00,WSW,241,0.0,4.0,81,0.00,,,0.00,0.000000,,2013-08-04 05:42:00,
2013-08-03 23:52:00,52.0,36.0,-100.00,SW,214,5.0,8.0,54,-99.99,,,0.00,0.000000,,2013-08-04 05:52:00,